Showing default

ION SCV-004, 50993

Orbit data source: Space-Track

ION SCV-004, 50993 is a payload satellite owned by D-ORBIT (IT) in SSO that was launched on Thu, 13 Jan 2022 UTC via an FALCON 9 launch vehicle from the Air Force Eastern Test Range (AFETR). Payload-class satellites include a variety of spacecraft equipped with specific instruments for various scientific and technological missions. These include communications satellites like Starlink; space stations such as the ISS; scientific satellites like the Hubble; Earth observation satellites from companies like Planet Labs, Umbra, and HawkEye 360; GPS; miniature CubeSats for education and research; and military/defense satellites.

Loading next visibility...
Identifier
50993, 2022-002K
Orbit
SSO
Country
Flag of ITIT
Related business
Manufacturer
D-ORBIT
Mission
Operational Commercial Technology
Bus & Motor
ION-SC, PM200
Mass
220 kg wet, 150 kg dry
Launch date (UTC)
2022-01-13 (4 years ago)
Launch vehicle
FALCON 9
Launch site
Air Force Eastern Test Range (AFETR)
Object type
Payload
Rocket body
Debris
Shape & HBR
Box, 0.2 m
Radar Cross Section
0.240 m², Large (>1 m²)

Expand to show TLE details & history
Last TLE update: 5 days ago

TLE from 5 days ago
0 ION SCV-004
1 50993U 22002K   26155.09228572  .00006245  00000-0  21533-3 0  9990
2 50993  97.2835 212.9975 0008457  50.9142 309.2850 15.30316595243297
Epoch: 2026-06-04T02:12Z
TLE epoch observation values (Epoch: 2026-06-04T02:12:53.486Z)
Latitude
-0.00001°
Longitude
-72.76687°
Altitude
474.307 km
Speed
7.631 km/s
True Right ascension
14h 11m 59s
True Declination
0° 00' 00"
Sunlit
Object was in full shadow at epoch
Visualization orbit readout
Latitude
Unknown
Longitude
Unknown
Altitude
Unknown
Speed
Unknown
Apparent Right ascension
Unknown
Apparent Declination
Unknown
Sunlit
N/A
Visualization observer readout
Local Sidereal Time
12:34:36
Azimuth
Unknown
Elevation
Unknown
Doppler factor
Unknown
Orbital elements
Apogee altitude
477.607 km
Perigee altitude
466.021 km
Semi-major axis
6,849.951 km
Eccentricity
0.00085
Inclination
97.2835°
RAAN
212.9975°
Arg. of periapsis
50.9142°
True anomaly
309.20994°
Mean anomaly
309.285°
Eccentric anomaly
309.24748°
Mean motion
3.82835 °/min
Orbital period
94.04 mins
BSTAR
0.00021533
Loading maneuver chart data...
Computing Atmospheric mass density...

Documentation

Showing up to 5 results
|